Theta_e
295 296 296 298 298 299 300 303 306 306 306 307 307 312 314 312 317 317 319 320 322 317 316 316 317 317 318 321 321 321 325 327 324 321 319 319 321 323 325 329 329 328 331 333
294 295 296 297 298 298 301 305 305 307 305 307 306 308 311 313 315 315 317 319 321 321 322 321 320 317 321 320 323 323 323 322 319 320 322 322 322 323 324 324 325 326 332 332
294 294 295 296 298 298 300 304 305 305 306 305 307 308 308 311 311 312 314 315 316 317 320 322 321 320 319 319 319 313 316 323 322 323 319 317 319 323 324 325 330 330 327 328
293 293 294 295 296 298 300 303 305 304 307 306 306 307 308 306 308 307 306 310 313 314 316 317 317 317 317 316 313 311 316 322 321 318 316 316 317 318 320 323 324 328 328 324
293 293 294 294 296 297 300 303 304 304 305 304 306 305 307 306 305 305 306 306 306 306 307 309 309 308 309 310 310 310 311 315 314 318 315 316 318 318 318 319 319 319 319 320
292 293 294 294 295 296 300 300 301 304 304 305 304 305 306 305 305 304 305 305 305 305 305 307 307 308 308 309 309 310 311 313 315 318 314 314 316 317 316 316 316 317 319 320
292 293 294 294 293 295 297 300 301 304 306 303 305 303 303 303 304 305 305 304 304 305 305 305 305 305 306 306 307 308 309 310 310 314 310 313 311 311 312 314 315 315 316 317
291 293 293 293 293 294 295 298 300 303 305 303 304 303 304 304 303 303 303 304 303 303 303 304 305 305 305 306 306 307 307 309 313 314 312 310 309 309 310 310 311 312 313 315
291 292 293 292 293 294 294 297 300 301 304 303 302 304 303 303 304 304 304 304 303 303 304 304 305 304 304 304 306 307 307 308 311 311 312 310 310 310 311 311 314 312 313 313
291 291 292 292 293 294 294 297 298 300 301 303 303 304 303 302 303 305 304 304 303 304 306 307 306 306 304 305 305 306 308 312 313 315 315 312 310 310 311 314 314 312 313 314
290 292 291 292 294 293 294 297 299 300 302 302 302 302 303 302 303 305 303 304 304 305 306 305 305 305 305 305 305 306 307 310 315 314 314 316 310 311 312 313 312 313 315 316
291 291 291 293 294 293 293 298 299 300 301 301 301 301 301 301 301 303 303 303 303 304 305 306 306 307 307 307 310 306 309 308 312 310 312 312 312 311 313 314 313 313 314 313
291 291 293 294 294 292 295 298 299 300 300 297 299 302 300 300 300 300 304 302 302 302 303 303 303 305 303 306 305 305 305 306 310 311 310 310 309 309 311 309 312 311 312 314
290 291 294 295 294 295 297 298 299 299 297 302 301 300 300 299 300 300 300 301 300 301 302 305 306 306 302 304 305 305 305 305 305 307 308 306 307 307 308 309 310 311 311 312
290 293 295 295 296 297 297 297 300 298 299 303 300 299 299 298 298 299 299 300 302 303 304 304 305 303 303 305 305 306 303 304 307 309 306 307 308 307 307 308 308 309 310 311
293 295 295 295 297 297 296 297 298 298 298 300 299 298 298 298 298 298 299 301 303 304 303 304 304 302 304 304 306 304 302 302 304 306 306 308 308 309 306 308 308 309 310 312
294 296 296 297 296 296 297 298 298 297 297 298 299 299 298 298 298 299 301 300 302 305 305 303 303 303 305 303 303 302 302 304 305 306 308 309 307 308 308 309 308 309 310 312
295 295 293 293 295 295 295 297 297 297 297 297 298 298 299 298 301 302 301 305 306 305 305 304 304 304 303 303 303 303 304 304 306 307 308 308 308 308 309 309 309 308 309 309
295 294 293 293 293 296 296 296 296 297 297 299 299 299 299 299 300 301 303 305 305 304 303 304 304 305 307 305 304 304 305 305 305 306 306 307 309 309 310 309 309 308 308 309
292 293 294 296 296 296 295 295 297 297 298 297 299 298 300 298 299 303 302 301 304 305 305 305 308 308 306 305 305 306 307 307 308 306 308 310 310 310 310 310 310 310 310 311
293 293 297 296 295 295 297 299 298 300 297 298 298 298 300 299 302 303 300 301 302 304 306 307 308 308 307 307 307 307 308 309 309 309 309 310 310 311 312 312 313 313 315 314
295 296 296 296 297 298 297 297 298 298 298 298 299 299 300 301 302 302 303 303 303 305 305 309 309 308 307 310 312 311 311 314 315 315 313 311 311 312 313 316 317 315 313 313
295 296 298 297 298 297 297 297 299 299 299 300 301 302 302 302 302 304 305 308 306 305 309 308 308 310 310 309 308 307 307 311 318 317 314 312 311 312 313 311 310 310 311 308
296 296 295 296 297 297 297 298 298 298 299 299 300 300 301 301 302 302 302 303 305 308 308 308 309 307 307 307 306 305 306 317 317 316 314 313 316 312 307 306 304 302 301 300
296 296 295 297 297 298 298 299 299 298 298 299 300 301 302 302 303 304 304 304 307 310 311 307 305 303 305 305 305 306 311 312 316 315 314 310 306 305 303 303 303 301 299 299
295 295 296 297 298 298 299 299 299 299 300 300 301 301 302 302 303 303 306 307 309 307 307 305 302 302 303 303 304 308 309 307 309 309 309 307 304 304 303 302 301 299 299 298
295 296 296 297 297 298 298 299 299 299 299 300 299 300 300 302 303 302 303 305 307 306 305 302 301 300 302 302 304 307 306 306 305 304 305 304 303 302 302 301 300 299 297 296
Wind_Speed
15 16 16 15 11 11 10 10 6 5 1 6 8 15 20 3 10 6 10 9 10 12 13 16 13 17 2 8 2 6 5 5 12 20 17 17 17 19 15 11 13 13 14 18
15 16 17 14 11 7 11 5 10 4 1 7 12 14 11 19 7 8 6 6 4 1 10 7 13 14 13 8 8 5 7 8 12 19 17 16 17 17 17 19 18 24 16 20
14 15 17 16 11 7 5 4 3 5 6 11 13 14 17 17 4 12 14 11 3 5 9 9 6 13 7 4 2 6 5 8 15 13 14 16 12 12 16 18 16 20 21 26
17 17 17 16 14 7 5 4 5 6 4 10 13 13 14 13 19 9 5 11 14 12 12 13 13 14 14 13 8 7 6 15 17 22 25 22 23 23 25 26 25 22 26 27
18 18 18 17 16 9 9 4 4 5 10 13 10 16 16 15 9 4 9 13 11 8 11 13 14 9 7 10 10 13 15 18 15 24 28 22 21 26 32 34 29 30 32 34
19 19 19 18 15 11 7 13 20 6 7 12 13 12 16 18 12 11 12 13 10 10 8 10 11 11 11 12 12 12 13 10 11 23 25 20 19 35 32 31 33 28 28 31
21 21 21 19 20 18 15 15 12 6 10 11 12 16 16 15 15 14 7 6 7 6 8 11 14 17 19 19 21 18 19 17 12 16 18 20 24 20 27 30 29 28 30 29
24 24 23 24 26 24 24 21 12 5 10 13 14 16 14 14 13 13 14 13 11 7 9 10 11 13 19 25 26 26 24 19 14 16 18 20 28 25 23 23 27 26 25 27
27 27 26 29 30 28 26 27 26 10 4 14 19 15 14 11 11 13 15 12 9 9 8 5 10 6 9 7 5 22 26 24 15 14 20 18 23 24 24 21 22 16 22 27
30 30 30 34 33 33 29 24 27 15 4 11 9 12 11 11 11 7 6 5 8 7 6 10 13 15 14 15 20 19 13 16 22 19 17 18 24 26 20 22 15 13 18 23
32 31 36 38 38 37 32 29 29 29 3 8 14 17 13 8 7 8 3 4 6 7 7 7 10 13 15 17 23 25 21 16 14 19 21 26 19 21 23 20 21 23 22 25
33 34 39 38 34 36 34 25 27 27 11 3 11 25 26 20 19 13 12 10 11 2 4 4 5 10 13 18 17 21 20 20 17 23 18 19 18 21 20 28 24 27 27 30
34 37 36 31 31 35 35 24 18 22 3 2 5 15 20 20 25 26 12 12 16 16 16 12 13 18 14 16 17 23 23 25 16 18 27 33 27 31 33 31 32 31 30 30
35 36 31 30 31 32 32 27 22 19 3 3 8 17 21 27 28 28 26 27 27 24 13 13 12 15 11 17 22 20 19 22 28 29 35 26 34 32 31 32 31 34 33 28
42 32 29 31 30 29 29 28 23 27 11 2 4 11 15 19 23 25 29 31 21 14 14 13 15 16 16 18 19 20 21 28 19 25 27 24 37 29 34 33 33 34 33 32
32 28 30 30 30 30 20 4 20 24 15 2 3 5 12 18 24 28 28 26 17 14 14 12 13 26 16 14 22 34 32 33 32 30 33 33 37 35 37 35 36 35 32 31
24 22 29 33 32 31 6 3 4 27 17 2 3 4 7 19 24 21 15 26 13 15 15 15 16 16 15 18 26 35 33 34 33 33 32 36 37 30 32 33 33 32 28 21
27 28 25 29 27 17 5 2 11 24 7 2 3 5 8 12 11 11 10 12 13 13 13 13 13 14 15 19 40 35 36 35 35 37 38 38 37 35 33 32 28 30 26 23
29 30 26 17 6 6 10 13 20 12 6 3 4 6 8 5 10 9 9 10 13 9 10 10 10 15 18 25 30 32 36 34 39 37 35 35 35 35 33 29 27 24 23 21
28 25 5 3 9 13 20 5 5 4 5 5 7 9 14 10 11 12 9 6 9 10 13 13 18 23 37 36 36 35 35 34 33 30 30 30 30 28 30 29 23 20 22 23
8 3 2 12 23 10 4 4 5 4 4 5 8 15 14 12 14 13 6 5 5 9 13 15 13 21 25 21 29 31 33 35 37 34 33 30 26 24 22 21 21 21 16 14
8 11 11 10 4 3 4 5 4 6 6 7 10 10 8 6 4 6 4 5 5 9 9 9 11 17 23 19 16 21 25 26 24 23 26 27 25 23 20 14 6 7 11 17
10 4 2 3 3 5 6 8 5 5 6 5 4 5 2 3 5 4 4 6 8 8 6 7 10 14 19 22 21 24 24 29 27 22 20 21 19 12 7 10 9 16 17 30
2 4 6 5 6 6 7 9 9 9 10 9 6 8 4 5 5 5 5 7 6 6 9 17 6 18 24 22 20 20 27 17 10 9 13 9 8 14 14 18 21 20 16 25
2 3 4 7 7 6 4 5 9 7 6 5 7 6 5 5 5 5 5 5 7 6 5 9 14 23 22 23 22 23 10 5 3 6 10 13 15 15 13 22 27 26 24 24
1 3 4 5 5 7 8 8 9 7 6 5 5 3 4 6 4 5 6 8 7 10 13 13 19 24 21 21 21 15 1 6 8 11 13 14 16 18 17 23 25 23 24 26
4 6 7 8 6 6 5 4 5 7 4 4 2 3 6 4 5 6 5 9 13 15 15 17 22 21 20 20 17 0 8 10 12 13 13 14 23 29 19 15 17 27 25 27
Wind_Direction
332 335 326 333 332 325 308 285 262 51 356 229 234 234 231 315 288 285 271 293 283 263 252 255 254 261 309 50 297 211 67 275 243 246 262 251 246 264 233 226 250 251 262 269
321 324 323 321 325 320 309 277 275 139 241 238 238 241 268 248 250 264 280 266 298 280 257 243 242 238 89 53 27 37 360 232 255 252 245 247 255 250 259 265 270 262 265 265
319 316 315 315 315 301 284 287 280 241 212 266 287 275 243 249 181 268 274 281 285 266 245 238 265 241 100 119 73 44 314 257 249 249 260 305 296 257 242 251 250 259 255 267
302 305 305 303 301 291 254 239 249 299 259 229 249 252 276 258 245 189 251 246 246 262 259 250 250 260 274 260 272 300 264 260 264 271 272 269 276 276 269 263 256 258 269 269
295 300 297 287 291 279 241 260 240 255 268 270 278 224 248 256 249 278 248 241 269 237 265 272 276 303 279 272 287 266 253 261 270 271 268 271 271 262 260 257 264 265 267 272
284 290 290 277 280 278 235 241 262 292 270 259 251 251 231 241 260 278 263 282 291 277 285 320 321 312 296 285 281 274 265 261 254 256 265 269 254 243 255 261 257 262 266 270
280 279 280 276 271 268 277 244 260 241 248 249 260 256 255 257 238 239 223 206 277 302 317 305 289 270 262 255 250 249 251 250 246 263 281 262 247 260 261 263 270 268 270 274
278 278 279 277 270 268 267 268 242 241 253 251 251 244 255 267 262 251 264 274 283 308 287 284 274 251 238 237 236 232 226 237 246 246 248 259 269 256 259 267 274 273 282 279
277 278 275 277 269 262 259 262 236 251 260 247 249 247 243 248 251 266 265 270 277 266 256 241 247 259 283 259 252 213 219 223 226 241 240 250 255 264 254 290 270 274 278 268
276 274 276 272 265 257 247 252 232 229 243 256 273 230 245 238 242 259 264 208 217 219 211 229 242 253 257 255 253 255 246 211 217 231 248 262 261 272 292 271 284 297 305 310
276 273 278 272 265 246 236 244 226 215 238 245 252 242 241 246 233 245 260 273 228 238 235 243 249 255 257 258 251 255 255 263 225 230 233 246 253 264 251 272 280 292 296 296
274 279 276 269 249 233 227 238 225 222 226 284 263 249 249 256 260 263 266 252 274 291 278 263 279 270 284 278 271 264 257 251 258 249 253 249 254 283 293 305 298 290 290 291
272 282 274 254 232 224 218 217 212 208 244 274 227 236 235 241 245 249 262 260 260 263 266 279 280 269 269 267 263 273 262 256 246 268 261 263 273 270 275 281 284 283 287 288
281 280 261 238 227 218 215 205 211 203 149 236 246 226 237 243 242 242 241 253 262 266 266 260 254 255 254 263 270 268 264 271 267 272 265 282 274 273 274 274 281 279 273 285
285 265 248 228 220 211 202 206 211 208 204 261 260 263 249 245 239 236 239 241 243 248 248 242 247 252 257 256 266 257 253 262 257 259 273 274 270 274 274 274 273 282 292 291
268 240 225 217 200 181 173 207 217 209 211 259 259 266 254 242 235 234 236 236 234 234 246 244 250 255 259 259 255 255 255 255 255 264 262 261 271 273 271 276 277 276 281 282
232 196 185 179 174 171 157 190 159 187 186 204 278 255 233 240 239 239 240 241 240 241 244 244 248 253 250 251 254 254 255 260 263 263 265 261 259 260 259 257 265 264 269 279
201 183 181 168 164 164 192 148 155 162 136 173 241 253 262 234 241 251 248 238 238 235 241 246 246 247 241 248 253 263 263 261 258 253 248 249 258 264 268 269 271 274 276 287
159 149 140 126 147 166 174 152 143 164 205 212 210 237 272 227 244 263 273 260 260 259 239 231 235 236 235 253 259 256 251 247 250 255 259 260 257 258 259 258 254 261 263 271
149 142 151 148 173 150 126 129 185 211 207 223 247 263 260 261 267 272 278 272 261 255 251 252 234 247 249 249 254 261 266 266 267 267 266 249 250 253 255 251 252 248 254 253
160 115 122 121 139 142 179 157 192 164 230 231 238 237 259 248 254 263 254 254 256 253 247 247 248 254 254 261 258 260 261 257 254 251 245 247 249 250 248 250 245 240 243 180
147 120 116 132 161 139 171 184 188 208 228 228 229 245 260 283 300 246 224 241 251 260 256 248 252 263 266 285 315 303 309 302 270 251 237 235 235 235 241 242 207 162 130 153
130 87 103 155 148 189 200 183 200 216 208 241 250 255 129 239 234 238 252 246 242 286 234 251 270 316 335 320 319 311 303 293 270 258 229 225 235 237 145 131 131 146 143 137
118 162 150 212 175 222 211 229 227 225 243 269 271 266 252 252 234 238 248 251 264 240 257 271 336 319 310 313 308 303 302 282 277 227 205 204 160 147 137 127 131 125 122 128
161 184 202 215 230 241 284 288 284 274 275 281 298 273 245 261 245 234 258 260 249 258 2 304 317 319 314 313 312 310 291 307 255 138 115 122 128 123 122 130 131 126 127 127
278 250 249 246 239 241 254 257 257 266 302 313 258 253 266 240 246 245 236 292 287 325 318 318 319 318 310 312 312 302 44 70 73 104 116 117 120 122 116 115 115 122 125 115
211 226 234 259 272 266 273 259 282 294 246 237 273 254 242 281 252 263 265 286 304 312 313 314 309 309 312 314 310 235 96 95 91 90 94 105 114 117 109 101 95 86 89 97